When you browse on this site, cookies collect data to enhance your experience and personalize the content and advertising you see.
Visit our Privacy Policy to learn more. By continuing to use the site, you agree to this use of cookies and data.
  • In Hungary
  • List of Countries
  • For 7 days
  • Water Temperature
  • Satellite Maps
  • Weather Map
  • News
  • Weather Widgets
  • user-avatar
    Login

    Hourly Weather San Sicario

    Today, 17 June, Monday

    Time Temperature Precipitation Wind Pressure Humidity
    00:00 +10°C° 0 mm 1 mps 630 mmHg 87%
    01:00 +10°C° 0 mm 1 mps 630 mmHg 85%
    02:00 +10°C° 0 mm 1 mps 630 mmHg 84%
    03:00 +10°C° 0 mm 1 mps 630 mmHg 82%
    04:00 +12°C° 0 mm 1 mps 630 mmHg 77%
    05:00 +13°C° 0 mm 1 mps 631 mmHg 71%
    06:00 +15°C° 0 mm 1 mps 632 mmHg 63%
    07:00 +18°C° 0 mm 1 mps 633 mmHg 58%
    08:00 +19°C° 0 mm 1 mps 633 mmHg 54%
    09:00 +19°C° 0 mm 2 mps 633 mmHg 50%
    10:00 +20°C° 0 mm 2 mps 633 mmHg 50%
    11:00 +20°C° 0 mm 2 mps 633 mmHg 50%
    12:00 +20°C° 0 mm 2 mps 634 mmHg 51%
    13:00 +20°C° 0.8 mm 2 mps 633 mmHg 57%
    14:00 +19°C° 0.8 mm 2 mps 633 mmHg 63%
    15:00 +19°C° 0.8 mm 1 mps 632 mmHg 70%
    16:00 +19°C° 1 mm 1 mps 632 mmHg 74%
    17:00 +18°C° 1 mm 1 mps 632 mmHg 78%
    18:00 +15°C° 1 mm 0 mps 631 mmHg 82%
    19:00 +14°C° 0.2 mm 0 mps 631 mmHg 85%
    20:00 +12°C° 0.2 mm 0 mps 631 mmHg 88%
    21:00 +11°C° 0.2 mm 0 mps 630 mmHg 91%
    22:00 +10°C° 0 mm 0 mps 630 mmHg 91%
    23:00 +10°C° 0 mm 0 mps 630 mmHg 92%

    Tomorrow, 18 June, Tuesday

    Time Temperature Precipitation Wind Pressure Humidity
    00:00 +10°C° 0 mm 0 mps 630 mmHg 92%
    01:00 +9°C° 0 mm 0 mps 630 mmHg 92%
    02:00 +9°C° 0 mm 0 mps 630 mmHg 93%
    03:00 +9°C° 0 mm 0 mps 629 mmHg 93%
    04:00 +10°C° 0 mm 0 mps 630 mmHg 90%
    05:00 +12°C° 0 mm 0 mps 631 mmHg 86%
    06:00 +13°C° 0 mm 0 mps 631 mmHg 83%
    07:00 +16°C° 0 mm 1 mps 632 mmHg 76%
    08:00 +18°C° 0 mm 1 mps 632 mmHg 70%
    09:00 +20°C° 0 mm 1 mps 633 mmHg 63%
    10:00 +20°C° 0.3 mm 1 mps 633 mmHg 60%
    11:00 +20°C° 0.3 mm 2 mps 633 mmHg 58%
    12:00 +20°C° 0.3 mm 2 mps 633 mmHg 56%
    13:00 +20°C° 0.5 mm 2 mps 633 mmHg 56%
    14:00 +21°C° 0.5 mm 1 mps 632 mmHg 57%
    15:00 +21°C° 0.5 mm 1 mps 632 mmHg 57%
    16:00 +20°C° 0.4 mm 1 mps 632 mmHg 60%
    17:00 +19°C° 0.4 mm 1 mps 632 mmHg 64%
    18:00 +19°C° 0.4 mm 1 mps 631 mmHg 67%
    19:00 +16°C° 0.1 mm 1 mps 631 mmHg 72%
    20:00 +14°C° 0.1 mm 1 mps 630 mmHg 76%
    21:00 +12°C° 0.1 mm 1 mps 630 mmHg 81%
    22:00 +12°C° 0.1 mm 1 mps 629 mmHg 81%
    23:00 +11°C° 0.1 mm 1 mps 629 mmHg 81%

    Day after tomorrow, 19 June, Wednesday

    Time Temperature Precipitation Wind Pressure Humidity
    00:00 +11°C° 0.1 mm 1 mps 629 mmHg 82%
    01:00 +10°C° 0 mm 1 mps 629 mmHg 82%
    02:00 +10°C° 0 mm 1 mps 628 mmHg 82%
    03:00 +10°C° 0 mm 1 mps 628 mmHg 83%
    04:00 +12°C° 0 mm 1 mps 629 mmHg 77%
    05:00 +13°C° 0 mm 1 mps 629 mmHg 72%
    06:00 +15°C° 0 mm 1 mps 630 mmHg 66%
    07:00 +18°C° 0 mm 1 mps 631 mmHg 58%
    08:00 +20°C° 0 mm 1 mps 631 mmHg 50%
    09:00 +22°C° 0 mm 1 mps 632 mmHg 41%
    10:00 +21°C° 0.1 mm 2 mps 632 mmHg 42%
    11:00 +21°C° 0.1 mm 2 mps 632 mmHg 42%
    12:00 +21°C° 0.1 mm 3 mps 632 mmHg 42%
    13:00 +21°C° 0.3 mm 3 mps 632 mmHg 43%
    14:00 +21°C° 0.3 mm 2 mps 631 mmHg 44%
    15:00 +21°C° 0.3 mm 2 mps 631 mmHg 44%
    16:00 +20°C° 0.1 mm 2 mps 631 mmHg 50%
    17:00 +19°C° 0.1 mm 2 mps 631 mmHg 56%
    18:00 +19°C° 0.1 mm 1 mps 630 mmHg 62%
    19:00 +16°C° 0 mm 1 mps 630 mmHg 68%
    20:00 +15°C° 0 mm 1 mps 630 mmHg 73%
    21:00 +13°C° 0 mm 1 mps 629 mmHg 79%
    22:00 +12°C° 0 mm 1 mps 629 mmHg 79%
    23:00 +12°C° 0 mm 1 mps 629 mmHg 80%

    20 June, Thursday

    Time Temperature Precipitation Wind Pressure Humidity
    00:00 +11°C° 0 mm 1 mps 628 mmHg 80%
    01:00 +11°C° 0 mm 1 mps 628 mmHg 79%
    02:00 +11°C° 0 mm 1 mps 628 mmHg 77%
    03:00 +11°C° 0 mm 1 mps 628 mmHg 75%
    04:00 +12°C° 0 mm 1 mps 629 mmHg 70%
    05:00 +14°C° 0 mm 1 mps 629 mmHg 65%
    06:00 +15°C° 0 mm 1 mps 630 mmHg 59%
    07:00 +18°C° 0 mm 1 mps 630 mmHg 54%
    08:00 +18°C° 0 mm 2 mps 631 mmHg 48%
    09:00 +20°C° 0 mm 2 mps 632 mmHg 42%
    10:00 +20°C° 0.1 mm 2 mps 632 mmHg 44%
    11:00 +20°C° 0.1 mm 2 mps 632 mmHg 46%
    12:00 +21°C° 0.1 mm 3 mps 632 mmHg 48%
    13:00 +21°C° 0.2 mm 3 mps 631 mmHg 49%
    14:00 +20°C° 0.2 mm 3 mps 631 mmHg 50%
    15:00 +20°C° 0.2 mm 2 mps 631 mmHg 51%
    16:00 +19°C° 0.2 mm 2 mps 631 mmHg 57%
    17:00 +19°C° 0.2 mm 2 mps 631 mmHg 62%
    18:00 +19°C° 0.2 mm 1 mps 630 mmHg 68%
    19:00 +16°C° 0.1 mm 1 mps 630 mmHg 74%
    20:00 +14°C° 0.1 mm 1 mps 630 mmHg 80%
    21:00 +12°C° 0.1 mm 1 mps 629 mmHg 86%
    22:00 +12°C° 0 mm 1 mps 629 mmHg 87%
    23:00 +11°C° 0 mm 1 mps 629 mmHg 87%

    21 June, Friday

    Time Temperature Precipitation Wind Pressure Humidity
    00:00 +11°C° 0 mm 1 mps 629 mmHg 88%
    01:00 +11°C° 0 mm 1 mps 629 mmHg 87%
    02:00 +10°C° 0 mm 1 mps 629 mmHg 86%
    03:00 +10°C° 0 mm 1 mps 628 mmHg 85%
    04:00 +12°C° 0 mm 1 mps 629 mmHg 79%
    05:00 +14°C° 0 mm 1 mps 630 mmHg 73%
    06:00 +15°C° 0 mm 0 mps 631 mmHg 67%
    07:00 +18°C° 0 mm 1 mps 631 mmHg 62%
    08:00 +19°C° 0 mm 1 mps 632 mmHg 57%
    09:00 +20°C° 0 mm 2 mps 633 mmHg 51%
    10:00 +20°C° 0.4 mm 2 mps 632 mmHg 52%
    11:00 +20°C° 0.4 mm 2 mps 632 mmHg 54%
    12:00 +20°C° 0.4 mm 2 mps 632 mmHg 55%
    13:00 +20°C° 0.9 mm 2 mps 632 mmHg 58%
    14:00 +20°C° 0.9 mm 2 mps 632 mmHg 60%
    15:00 +20°C° 0.9 mm 2 mps 631 mmHg 63%
    16:00 +20°C° 1.2 mm 1 mps 631 mmHg 70%
    17:00 +19°C° 1.2 mm 1 mps 631 mmHg 77%
    18:00 +18°C° 1.2 mm 1 mps 630 mmHg 84%
    19:00 +15°C° 0.9 mm 1 mps 630 mmHg 87%
    20:00 +14°C° 0.9 mm 1 mps 630 mmHg 90%
    21:00 +13°C° 0.9 mm 1 mps 630 mmHg 92%
    22:00 +12°C° 0.7 mm 1 mps 629 mmHg 93%
    23:00 +12°C° 0.7 mm 1 mps 629 mmHg 94%

    22 June, Saturday

    Time Temperature Precipitation Wind Pressure Humidity
    00:00 +12°C° 0.7 mm 1 mps 629 mmHg 95%
    01:00 +11°C° 0.2 mm 0 mps 629 mmHg 95%
    02:00 +10°C° 0.2 mm 0 mps 628 mmHg 94%
    03:00 +10°C° 0.2 mm 0 mps 628 mmHg 94%
    04:00 +11°C° 0 mm 0 mps 629 mmHg 90%
    05:00 +12°C° 0 mm 0 mps 629 mmHg 87%
    06:00 +13°C° 0 mm 0 mps 630 mmHg 84%
    07:00 +15°C° 0.1 mm 1 mps 630 mmHg 78%
    08:00 +16°C° 0.1 mm 1 mps 631 mmHg 72%
    09:00 +19°C° 0.1 mm 1 mps 631 mmHg 65%
    10:00 +18°C° 0.4 mm 2 mps 631 mmHg 64%
    11:00 +18°C° 0.4 mm 2 mps 631 mmHg 64%
    12:00 +19°C° 0.4 mm 2 mps 631 mmHg 63%
    13:00 +19°C° 0.4 mm 2 mps 631 mmHg 62%
    14:00 +19°C° 0.4 mm 2 mps 631 mmHg 61%
    15:00 +19°C° 0.4 mm 2 mps 631 mmHg 61%
    16:00 +18°C° 0.2 mm 2 mps 631 mmHg 65%
    17:00 +17°C° 0.2 mm 2 mps 630 mmHg 69%
    18:00 +16°C° 0.2 mm 2 mps 630 mmHg 74%
    19:00 +14°C° 0 mm 2 mps 630 mmHg 79%
    20:00 +13°C° 0 mm 2 mps 630 mmHg 85%
    21:00 +10°C° 0 mm 2 mps 630 mmHg 90%
    22:00 +10°C° 0 mm 2 mps 629 mmHg 90%
    23:00 +9°C° 0 mm 2 mps 629 mmHg 90%
    Show more